Zurück zum Katalog

STARLINK-37881

AktivKommunikationSSO
NORAD 69547·PAYLOAD·🇺🇸 United States

Gestartet Jun 15, 2026 von Vandenberg Space Force Base

Loading…

Nächste Überflüge (nächste 24 Stunden)

TLE

AktuellSource: CelesTrak SupGP

Epoche: Sep 15, 2026, 03:42 UTC

1 69547C 26135B   26258.15465278 -.00040988  00000+0 -12727-2 0  2588
2 69547  97.2835 285.8553 0001346  85.9160  33.8691 15.33451565    15

Verfolge STARLINK-37881 in Echtzeit mit AllMySat

Download on the App Store